TDRS 6

Last updated on Thu Dec 18 2025 00:02:41 GMT+0000 (Coordinated Universal Time)

1 22314U 93003B 25351.48203970 -.00000283 00000+0 00000+0 0 9998 2 22314 14.1789 358.4037 0008344 211.8814 3.8171 1.00271401120580
UTC large
Height (km)
Speed (km/s)
/
Latitude / Longitude
Inclination (degrees)
Orbital Period (minutes)
Azimuth
Elevation
Range (km)
Doppler Factor

Next 0 passes for location: London (51.5072 / 0.1276)

Sorry there are no passes over London.